CAPE
0 0 0 0 0 0 0 0 0 0 0 0 0 0 0 0 0 0 0 0 0 0 0 0 0 0 0 0 0 0 3 6 15 11 0 0 0 0 0 0 0 0 0
0 0 0 0 0 0 0 0 0 0 0 0 0 0 0 0 0 0 0 0 0 0 0 0 0 0 0 0 0 0 0 2 7 2 0 0 0 0 0 0 0 0 0
0 0 0 0 0 0 0 0 0 0 0 0 0 0 0 0 0 0 0 0 0 0 0 0 0 0 0 0 2 2 1 4 2 0 3 1 1 0 0 0 0 0 0
0 0 0 0 0 0 0 0 0 0 0 0 0 0 0 0 0 0 0 0 0 0 0 0 0 0 0 0 1 2 3 1 0 1 4 4 7 1 0 0 0 0 0
0 0 0 0 0 0 0 0 0 0 0 0 0 0 0 0 0 0 0 0 0 0 0 0 0 0 0 0 7 0 3 1 1 1 2 2 4 6 5 0 0 0 0
0 0 0 0 0 0 0 0 0 0 0 0 0 0 0 0 0 0 0 0 0 0 0 0 0 0 0 0 0 4 11 13 4 4 2 9 6 8 1 1 0 1 2
0 0 0 0 0 0 0 0 0 0 0 0 0 0 0 0 0 0 0 0 0 0 0 0 0 0 0 0 0 1 0 0 0 3 2 5 3 1 1 1 1 2 2
0 0 0 0 0 0 0 0 0 0 0 0 0 0 0 0 0 0 0 0 0 0 0 0 0 0 0 0 1 1 0 0 0 0 0 3 6 1 1 0 0 0 1
0 0 0 0 0 0 0 0 0 0 0 0 0 0 0 0 0 0 0 0 0 0 0 0 0 0 0 0 1 2 1 0 0 0 0 0 0 0 0 0 0 2 1
0 0 0 0 0 0 0 0 0 0 0 0 0 0 0 0 0 0 0 0 0 0 0 0 0 0 0 0 1 2 2 1 1 0 0 0 0 0 0 0 0 1 2
0 0 0 0 0 0 0 0 0 0 0 0 0 0 0 0 0 0 0 0 0 0 0 0 0 0 0 0 1 1 1 1 1 0 0 0 0 0 0 0 0 1 1
0 0 0 0 0 0 0 0 0 0 0 0 0 0 0 0 0 0 0 0 0 0 0 0 0 0 0 0 0 1 1 2 0 0 0 0 0 0 0 0 0 0 1
0 0 0 0 0 0 0 0 0 0 0 0 0 0 0 0 0 0 0 0 0 0 0 0 0 0 0 0 0 1 2 2 2 2 2 2 0 0 0 0 0 0 0
0 0 0 0 0 0 0 0 0 0 0 0 0 0 0 0 0 0 0 0 0 0 0 0 0 0 0 0 0 1 2 2 1 1 2 1 1 0 0 0 0 0 0
0 0 0 0 0 0 0 0 0 0 0 0 0 0 0 0 0 0 0 0 0 0 0 0 0 0 0 0 0 1 2 1 1 1 1 1 1 0 0 0 0 0 0
0 0 0 0 0 0 0 0 0 0 0 0 0 0 0 0 0 0 0 0 0 0 0 0 0 0 1 2 1 1 1 1 1 1 0 1 1 1 1 0 0 1 1
0 0 0 0 0 0 0 0 0 0 0 0 0 0 0 0 0 0 0 0 0 0 1 1 2 2 2 2 1 1 0 0 1 0 0 0 1 1 1 1 0 0 0
0 0 0 0 0 0 0 0 0 0 0 0 0 0 0 0 0 0 0 0 0 0 1 2 2 1 1 1 0 0 0 0 0 0 0 0 1 0 1 1 1 1 1
0 0 0 0 0 0 0 0 0 0 0 0 0 0 0 0 0 0 0 0 1 2 2 1 1 0 0 0 0 0 0 0 0 0 0 0 0 1 2 1 1 1 0
0 0 0 0 0 0 0 0 0 0 0 0 0 0 0 0 0 0 1 2 2 1 1 1 1 1 1 0 0 0 0 0 0 0 0 0 0 1 1 1 1 0 0
0 0 0 0 0 0 0 0 0 0 0 0 0 0 0 0 1 1 3 2 1 0 1 1 1 1 1 1 1 1 1 1 1 0 0 0 0 1 2 1 1 1 1
0 0 0 0 0 0 0 0 0 0 0 0 0 0 0 1 1 3 2 1 1 1 1 1 1 1 1 1 1 1 1 1 1 0 0 0 0 2 1 1 1 0 0
0 0 0 0 0 0 0 0 0 0 0 0 0 0 0 0 2 2 2 1 2 2 2 2 1 1 1 1 1 0 0 0 1 0 0 0 1 1 1 1 0 0 0
0 0 0 0 0 0 0 0 0 0 0 0 0 0 1 2 1 2 1 2 3 2 2 2 1 1 1 2 2 3 2 1 0 0 0 1 1 1 1 1 0 0 0
0 0 0 0 0 0 0 0 0 0 0 0 1 1 2 2 2 2 2 2 2 1 2 2 2 2 2 2 2 2 3 1 1 1 0 1 1 1 0 0 0 1 1
0 0 0 0 0 0 0 0 0 0 0 1 1 2 2 2 2 2 2 2 2 2 2 2 2 2 3 2 1 2 0 2 1 1 2 2 1 1 0 0 0 0 0
CIN
0 0 0 0 0 0 0 0 0 0 0 0 0 0 0 0 0 0 0 0 0 0 0 0 0 0 0 0 0 -7 -22 -13 0 -1 0 0 0 0 0 0 0 0 0
0 0 0 0 0 0 0 0 0 0 0 0 0 0 0 0 0 0 0 0 0 0 0 0 0 0 0 0 0 0 -2 -8 -2 0 0 0 0 0 0 0 0 0 0
0 0 0 0 0 0 0 0 0 0 0 0 0 0 0 0 0 0 0 0 0 0 0 0 0 0 0 0 -1 -1 -2 -5 -4 0 0 -1 -2 0 0 0 0 0 0
0 0 0 0 0 0 0 0 0 0 0 0 0 0 0 0 0 0 0 0 0 0 0 0 0 0 0 0 -2 -2 -2 0 0 -1 0 0 0 -1 -1 0 0 0 0
0 0 0 0 0 0 0 0 0 0 0 0 0 0 0 0 0 0 0 0 0 0 0 0 0 0 0 0 -5 0 -3 -1 0 0 0 -1 -2 0 0 0 0 0 0
0 0 0 0 0 0 0 0 0 0 0 0 0 0 0 0 0 0 0 0 0 0 0 0 0 0 0 0 0 0 -1 0 0 0 0 0 0 0 0 0 0 0 0
0 0 0 0 0 0 0 0 0 0 0 0 0 0 0 0 0 0 0 0 0 0 0 0 0 0 0 0 0 0 0 0 0 0 0 0 0 0 0 0 0 0 0
0 0 0 0 0 0 0 0 0 0 0 0 0 0 0 0 0 0 0 0 0 0 0 0 0 0 0 0 0 0 0 0 0 0 0 0 0 -3 -3 0 0 0 0
0 0 0 0 0 0 0 0 0 0 0 0 0 0 0 0 0 0 0 0 0 0 0 0 0 0 0 0 0 0 0 0 0 0 0 -1 0 0 0 0 0 0 0
0 0 0 0 0 0 0 0 0 0 0 0 0 0 0 0 0 0 0 0 0 0 0 0 0 0 0 0 0 0 0 0 0 0 0 0 0 0 0 0 0 0 0
0 0 0 0 0 0 0 0 0 0 0 0 0 0 0 0 0 0 0 0 0 0 0 0 0 0 0 0 0 0 0 0 0 0 0 0 0 0 -1 0 0 0 0
0 0 0 0 0 0 0 0 0 0 0 0 0 0 0 0 0 0 0 0 0 0 0 0 0 0 0 0 0 0 0 0 0 0 0 0 0 0 0 0 0 0 0
0 0 0 0 0 0 0 0 0 0 0 0 0 0 0 0 0 0 0 0 0 0 0 0 0 0 0 0 0 0 0 0 0 0 0 0 0 0 0 0 0 0 0
0 0 0 0 0 0 0 0 0 0 0 0 0 0 0 0 0 0 0 0 0 0 0 0 0 0 0 0 0 0 0 0 0 0 0 0 0 0 0 0 0 0 0
0 0 0 0 0 0 0 0 0 0 0 0 0 0 0 0 0 0 0 0 0 0 0 0 0 0 0 0 0 0 0 0 0 0 0 0 0 0 0 0 0 0 0
0 0 0 0 0 0 0 0 0 0 0 0 0 0 0 0 0 0 0 0 0 0 0 0 0 0 0 0 0 0 0 0 0 0 0 0 0 0 0 0 0 0 0
0 0 0 0 0 0 0 0 0 0 0 0 0 0 0 0 0 0 0 0 0 0 0 0 0 0 0 0 0 0 0 0 0 0 0 0 0 0 0 0 0 0 0
0 0 0 0 0 0 0 0 0 0 0 0 0 0 0 0 0 0 0 0 0 0 0 0 0 0 0 0 0 0 0 0 0 0 0 0 0 0 0 0 0 0 0
0 0 0 0 0 0 0 0 0 0 0 0 0 0 0 0 0 0 0 0 0 0 0 0 0 0 0 0 -1 0 0 0 0 0 0 0 0 0 0 0 0 0 0
0 0 0 0 0 0 0 0 0 0 0 0 0 0 0 0 0 0 0 0 0 0 0 0 0 0 0 0 0 0 0 0 0 0 0 0 0 0 0 0 0 0 0
0 0 0 0 0 0 0 0 0 0 0 0 0 0 0 0 0 0 0 0 0 0 0 0 0 0 0 0 0 0 0 0 0 0 0 0 0 0 0 0 0 0 0
0 0 0 0 0 0 0 0 0 0 0 0 0 0 0 0 0 0 0 0 0 0 0 0 0 0 0 0 0 0 0 0 0 0 0 0 0 0 0 0 0 0 0
0 0 0 0 0 0 0 0 0 0 0 0 0 0 0 0 0 0 0 0 0 0 0 0 0 0 0 0 0 0 0 0 0 0 0 0 0 0 0 0 0 0 0
0 0 0 0 0 0 0 0 0 0 0 0 0 0 0 0 0 0 0 0 0 0 0 0 0 0 0 0 0 0 0 0 0 0 0 0 0 0 0 0 0 0 -1
0 0 0 0 0 0 0 0 0 0 0 0 0 0 0 0 0 0 0 0 0 0 0 0 0 0 0 0 0 0 0 0 0 0 0 0 0 0 0 0 0 0 0
0 0 0 0 0 0 0 0 0 0 0 0 0 0 0 0 0 0 0 0 0 0 0 0 0 0 0 0 0 0 0 0 0 0 0 0 0 0 0 0 0 0 0
Wind_Speed
10 13 16 17 17 19 21 22 23 23 23 23 23 24 24 22 21 21 19 20 23 25 26 27 29 29 28 27 27 26 26 25 24 25 30 37 38 39 39 39 37 37 36
11 14 16 18 18 20 21 20 20 21 21 20 21 23 22 20 17 16 16 18 20 21 23 26 29 31 30 29 27 28 27 25 25 28 31 35 37 37 37 40 37 36 35
11 14 16 17 18 19 20 19 19 18 19 21 21 22 21 19 19 17 17 18 18 20 23 26 29 30 29 29 28 28 28 23 22 25 31 33 34 37 40 38 38 36 34
11 13 16 17 17 18 19 18 18 19 20 22 22 21 20 22 23 22 22 22 21 22 22 26 30 29 29 30 30 30 29 28 24 26 30 33 35 35 35 35 37 35 34
14 14 15 16 16 17 18 19 19 21 21 22 23 23 23 25 27 28 27 28 27 26 26 28 27 27 28 28 29 31 30 29 28 30 33 34 33 34 33 35 34 34 32
13 13 15 16 17 18 18 19 21 22 22 23 23 24 26 26 27 29 30 31 30 29 29 28 27 27 26 27 29 29 29 29 28 29 32 32 33 31 33 34 32 31 28
12 13 15 17 18 18 19 20 22 23 23 22 23 24 25 25 27 28 30 31 32 32 30 29 27 26 26 28 28 29 25 26 28 29 31 31 33 34 31 33 30 30 30
13 14 16 18 19 19 19 21 22 23 23 23 23 24 25 23 25 27 29 32 33 32 29 28 26 26 25 28 30 31 28 26 27 27 29 30 30 31 29 28 28 30 28
13 15 17 18 19 19 21 23 23 22 23 23 23 26 22 22 24 25 29 31 32 33 28 26 25 26 26 28 29 28 28 27 29 29 28 27 28 29 28 27 26 26 24
14 16 17 18 19 21 21 23 22 23 24 24 25 23 20 21 24 26 27 29 32 32 28 24 24 26 26 28 27 26 27 28 30 31 30 28 27 27 27 22 23 23 22
14 17 18 19 20 21 21 22 23 24 25 26 26 24 22 25 28 30 29 27 27 28 26 24 24 27 30 29 25 23 22 26 27 25 25 23 25 26 25 21 20 20 22
15 18 19 20 21 23 22 22 24 24 27 28 26 25 26 30 32 31 31 28 23 22 23 23 19 23 29 31 26 24 25 25 21 19 21 23 23 22 21 19 22 23 23
16 18 20 22 22 22 23 23 25 27 27 27 26 28 31 32 32 33 31 28 26 23 17 16 16 19 23 26 25 25 24 26 22 20 19 22 21 20 20 21 21 21 22
16 19 21 22 23 23 21 22 25 26 26 25 28 31 33 33 35 34 34 31 26 22 19 18 19 20 23 22 25 26 24 24 22 22 19 17 18 21 22 21 19 19 17
17 20 21 22 22 22 23 23 24 24 23 26 29 30 33 35 35 34 33 29 26 23 22 22 24 23 25 26 28 27 27 24 21 21 19 17 17 19 20 20 18 17 14
18 19 21 21 21 23 24 24 22 21 22 24 26 27 31 30 29 30 28 27 25 29 25 19 23 26 27 27 28 27 26 25 24 22 18 16 15 18 18 17 16 15 13
17 19 20 20 22 22 22 23 25 23 24 28 28 29 31 30 29 27 26 29 30 24 22 26 25 24 24 24 25 22 22 25 25 20 17 15 14 15 15 14 14 12 13
17 19 21 21 21 21 22 22 21 22 26 28 28 30 32 33 29 26 27 29 24 26 25 29 23 28 26 24 21 21 18 25 21 20 15 12 13 13 11 11 13 12 12
17 19 21 22 22 22 23 21 20 24 26 27 29 32 32 32 28 28 31 25 26 26 28 24 24 20 21 20 21 15 10 14 19 16 13 10 9 9 8 8 12 11 11
19 21 22 23 23 25 25 23 23 26 28 29 32 34 32 32 31 32 28 28 27 23 25 22 17 17 16 15 15 5 15 17 15 16 13 11 8 8 9 6 10 9 12
21 22 24 25 26 27 26 24 25 28 30 32 34 32 30 28 29 26 27 28 28 28 26 21 18 19 17 16 14 13 14 16 15 12 13 11 10 10 8 10 10 13 13
21 23 24 27 27 27 26 26 28 30 32 33 32 30 29 28 29 25 26 30 28 26 24 21 20 20 17 15 9 10 9 8 12 16 15 14 14 13 8 13 13 13 13
22 23 25 27 27 28 29 30 31 32 32 32 31 28 27 28 27 24 27 27 25 25 25 23 22 20 16 12 7 8 9 11 16 19 23 26 28 28 22 14 13 12 14
23 25 25 26 27 28 30 31 32 33 34 31 30 27 24 26 21 23 26 28 27 22 24 22 22 18 13 11 9 10 12 16 21 26 30 30 30 29 26 17 13 9 13
23 25 25 25 26 28 29 32 33 34 33 31 29 27 23 24 19 21 24 24 24 21 21 19 21 16 14 11 8 10 18 24 28 31 32 32 32 30 26 20 15 15 13
23 24 24 24 25 27 30 32 33 33 33 31 28 24 22 16 14 17 20 22 23 19 17 17 18 17 15 13 13 20 28 30 33 35 34 34 33 30 26 24 24 20 18
Wind_Direction
25 19 14 11 10 7 2 0 -0 2 1 3 4 3 2 1 0 1 0 357 353 352 353 353 353 352 348 345 346 345 342 341 332 334 328 319 315 313 311 311 310 307 307
17 9 8 6 4 0 0 1 3 3 4 4 3 2 3 3 2 358 354 353 350 348 349 350 351 350 349 348 346 344 342 342 338 335 334 326 318 315 312 308 311 308 307
11 8 6 2 0 360 2 4 4 2 1 359 358 358 359 360 358 354 350 345 342 343 346 348 349 350 350 349 347 344 343 341 339 338 334 330 326 318 312 310 308 307 307
7 7 1 360 1 2 2 3 1 359 355 355 355 354 356 355 353 351 348 346 345 346 347 347 348 350 351 351 350 347 347 347 346 340 336 332 329 325 321 317 311 309 306
358 358 358 359 1 1 -0 0 359 357 357 357 357 357 355 354 352 353 354 352 350 349 348 347 349 350 351 352 350 348 347 346 343 338 331 330 332 328 324 320 316 313 308
359 1 358 358 359 358 359 360 358 358 358 356 356 355 353 354 355 356 355 355 354 350 348 348 348 348 350 349 348 347 347 346 344 342 335 331 330 335 328 320 316 313 312
3 3 3 1 358 1 2 0 358 357 357 356 356 355 353 354 355 356 356 355 352 349 348 348 348 349 349 350 349 347 349 349 345 340 337 334 330 326 331 322 315 310 307
3 4 1 2 3 3 2 359 357 359 359 357 355 354 352 352 354 354 353 352 352 351 349 350 351 351 352 350 348 346 348 351 348 344 338 332 331 329 329 328 320 309 297
1 359 2 2 2 3 1 360 359 358 356 355 353 350 350 352 353 353 351 351 351 351 350 351 353 354 354 352 350 351 352 352 349 345 340 338 336 332 330 323 320 314 317
0 2 2 3 3 1 360 359 0 358 355 354 353 355 358 356 354 351 348 348 348 350 351 354 355 356 357 355 354 352 350 350 349 347 345 343 341 338 331 328 320 312 310
2 3 4 3 3 2 0 0 359 358 359 358 358 360 360 356 352 350 349 347 348 350 353 353 354 356 355 354 356 358 356 350 351 352 353 353 348 340 336 332 320 320 293
3 4 4 3 3 2 2 3 2 3 0 360 2 3 1 356 354 353 352 351 349 346 346 350 353 354 353 354 356 354 350 351 356 0 1 1 0 357 356 340 302 279 278
4 4 5 5 4 5 5 5 4 2 2 4 6 2 358 358 356 354 352 351 350 350 348 347 348 350 352 353 356 355 353 348 353 357 358 355 1 1 356 330 298 287 275
8 7 6 6 6 6 9 8 5 5 7 8 5 0 360 359 358 358 356 355 356 356 354 350 349 346 347 350 353 352 354 350 350 347 355 5 8 353 331 306 286 296 287
11 9 9 9 11 12 10 10 11 12 13 8 5 3 1 0 0 359 359 1 358 353 348 347 346 348 348 348 347 347 346 347 345 344 350 357 3 350 328 316 308 302 309
13 12 13 13 14 12 11 13 17 17 14 11 9 9 4 2 0 1 2 1 358 357 357 354 350 347 346 345 345 345 347 343 337 335 346 352 357 335 332 335 325 308 299
15 14 15 14 12 12 14 14 12 16 15 12 11 8 5 0 1 0 0 1 360 3 2 357 353 352 349 349 348 350 347 341 330 338 341 344 353 332 334 351 323 303 281
19 18 14 14 14 16 17 16 16 15 10 7 8 7 5 3 2 1 2 3 8 8 4 357 358 354 353 350 350 352 356 331 341 333 340 356 340 328 353 1 298 283 276
23 19 19 17 18 20 17 18 19 14 10 8 6 6 5 5 5 6 7 10 6 5 3 3 1 1 3 4 1 13 35 26 355 354 348 4 358 4 32 360 289 283 272
24 21 19 18 19 16 17 18 17 12 9 9 6 5 6 8 10 10 13 11 10 10 9 11 15 19 23 27 31 25 29 20 26 351 340 343 2 47 63 346 288 285 255
25 24 19 18 16 16 18 22 17 13 11 8 6 8 10 12 12 13 13 14 14 17 19 22 25 28 31 33 42 52 45 36 40 78 89 64 63 72 55 263 267 243 236
30 25 20 16 18 21 25 23 19 15 12 10 11 14 16 19 17 17 17 19 21 24 27 29 32 33 37 46 63 65 90 146 150 115 81 81 82 79 253 234 235 236 223
32 27 20 19 26 29 28 24 19 17 16 15 17 20 23 22 22 22 23 27 28 30 32 36 36 39 47 55 77 95 107 114 105 106 117 133 143 151 182 211 218 220 208
31 23 25 32 35 32 28 24 21 19 16 20 22 26 27 25 24 26 30 31 33 35 37 39 42 45 49 61 79 92 108 123 140 141 141 142 143 146 157 186 205 204 190
28 26 34 39 39 35 31 27 25 22 22 24 28 30 31 30 29 33 35 37 37 38 39 43 47 49 57 69 91 106 116 121 133 137 137 134 134 142 149 164 178 177 185
26 29 42 46 42 39 33 29 27 26 26 28 32 35 34 30 27 36 38 35 35 39 41 48 51 55 63 80 96 104 107 118 127 128 129 129 133 140 148 155 155 164 172